DW5963 Weather Reports


Display with metric or nautical units.
time (UTC)temp
F
wind
direction
speed
MPH
gust
MPH
rain 1hr
in
rain 24hr
in
rain mn
in
humidity
%
barometer
mb
20260505221038 47 360 13.0 0.0 0.00 0.00 0.00 33 1017.7
20260505220539 47 360 14.0 0.0 0.00 0.00 0.00 33 1017.6
20260505220138 49 360 14.0 0.0 0.00 0.00 0.00 32 1017.7
20260505215538 49 360 14.0 0.0 0.00 0.00 0.00 32 1017.7
20260505215037 48 360 13.0 0.0 0.00 0.00 0.00 32 1017.7
20260505214537 47 360 14.0 0.0 0.00 0.00 0.00 34 1017.7
20260505214036 46 360 15.0 0.0 0.00 0.00 0.00 34 1017.7
20260505213536 47 360 14.0 0.0 0.00 0.00 0.00 32 1017.7
20260505213036 46 360 14.0 0.0 0.00 0.00 0.00 34 1017.7
20260505212536 47 360 15.0 0.0 0.00 0.00 0.00 33 1017.7
20260505212036 47 360 14.0 0.0 0.00 0.00 0.00 32 1017.8
20260505211535 47 360 12.0 0.0 0.00 0.00 0.00 34 1017.7
20260505211035 46 360 13.0 0.0 0.00 0.00 0.00 33 1017.9
20260505210535 46 360 15.0 0.0 0.00 0.00 0.00 34 1018.1
20260505210133 45 360 15.0 0.0 0.00 0.00 0.00 34 1018.1
20260505205535 45 360 15.0 0.0 0.00 0.00 0.00 34 1018.2
20260505205032 45 360 14.0 0.0 0.00 0.00 0.00 35 1018.1
20260505204633 45 360 14.0 0.0 0.00 0.00 0.00 34 1018.2
20260505204033 45 360 14.0 0.0 0.00 0.00 0.00 34 1018.3
20260505203656 45 360 13.0 0.0 0.00 0.00 0.00 34 1018.2
20260505203031 46 360 13.0 0.0 0.00 0.00 0.00 35 1018.3
20260505202531 45 360 14.0 0.0 0.00 0.00 0.00 35 1018.3
20260505202031 45 360 14.0 0.0 0.00 0.00 0.00 34 1018.3
20260505201530 45 360 13.0 0.0 0.00 0.00 0.00 35 1018.2
20260505201030 45 360 14.0 0.0 0.00 0.00 0.00 35 1018.3
20260505200531 45 360 14.0 0.0 0.00 0.00 0.00 35 1018.2
20260505200130 45 360 13.0 0.0 0.00 0.00 0.00 35 1018.2
20260505195530 45 360 12.0 0.0 0.00 0.00 0.00 35 1018.2
20260505195030 44 360 12.0 0.0 0.00 0.00 0.00 35 1018.3
20260505194530 45 360 12.0 0.0 0.00 0.00 0.00 35 1018.3
20260505194030 45 360 13.0 0.0 0.00 0.00 0.00 35 1018.3
20260505193530 45 360 13.0 0.0 0.00 0.00 0.00 35 1018.2
20260505193031 44 360 13.0 0.0 0.00 0.00 0.00 36 1018.2
20260505192531 44 360 13.0 0.0 0.00 0.00 0.00 35 1018.2
20260505192030 44 360 14.0 0.0 0.00 0.00 0.00 36 1018.2
20260505191530 44 360 13.0 0.0 0.00 0.00 0.00 36 1018.2
20260505191028 44 360 13.0 0.0 0.00 0.00 0.00 36 1018.2
20260505190528 44 360 13.0 0.0 0.00 0.00 0.00 35 1018.2
20260505190131 44 360 13.0 0.0 0.00 0.00 0.00 36 1018.3
20260505185528 44 360 14.0 0.0 0.00 0.00 0.00 36 1018.3
20260505185030 44 360 14.0 0.0 0.00 0.00 0.00 36 1018.3
20260505184529 44 360 14.0 0.0 0.00 0.00 0.00 36 1018.2
20260505184028 44 360 13.0 0.0 0.00 0.00 0.00 36 1018.2
20260505183530 43 360 13.0 0.0 0.00 0.00 0.00 36 1018.2
20260505183034 43 360 14.0 0.0 0.00 0.00 0.00 37 1018.2
20260505182527 43 360 14.0 0.0 0.00 0.00 0.00 37 1018.2
20260505182027 43 360 14.0 0.0 0.00 0.00 0.00 36 1018.2
20260505181527 43 360 13.0 0.0 0.00 0.00 0.00 36 1018.2
20260505181027 44 360 13.0 0.0 0.00 0.00 0.00 36 1018.1
20260505180527 43 360 14.0 0.0 0.00 0.00 0.00 36 1018.1
20260505180128 44 360 14.0 0.0 0.00 0.00 0.00 35 1018.2
20260505175526 44 360 14.0 0.0 0.00 0.00 0.00 36 1018.2
20260505175026 44 360 14.0 0.0 0.00 0.00 0.00 36 1018.2
20260505174526 43 360 13.0 0.0 0.00 0.00 0.00 36 1018.2
20260505174027 43 360 14.0 0.0 0.00 0.00 0.00 35 1018.1
20260505173526 44 360 15.0 0.0 0.00 0.00 0.00 36 1018.3
20260505173026 43 360 14.0 0.0 0.00 0.00 0.00 36 1018.2
20260505172525 44 360 13.0 0.0 0.00 0.00 0.00 35 1018.3
20260505172025 43 360 15.0 0.0 0.00 0.00 0.00 37 1018.3
20260505171524 43 360 15.0 0.0 0.00 0.00 0.00 35 1018.4
20260505171026 43 360 14.0 0.0 0.00 0.00 0.00 36 1018.4
20260505170523 43 360 15.0 0.0 0.00 0.00 0.00 36 1018.4
20260505170126 43 360 14.0 0.0 0.00 0.00 0.00 37 1018.4
20260505165526 42 360 15.0 0.0 0.00 0.00 0.00 37 1018.5
20260505165027 42 360 14.0 0.0 0.00 0.00 0.00 38 1018.3
20260505164524 42 360 15.0 0.0 0.00 0.00 0.00 35 1018.5
20260505164024 43 360 17.0 0.0 0.00 0.00 0.00 37 1018.4
20260505163522 43 360 17.0 0.0 0.00 0.00 0.00 37 1018.3
20260505163021 42 360 16.0 0.0 0.00 0.00 0.00 39 1018.3
20260505162528 40 360 17.0 0.0 0.00 0.00 0.00 40 1018.4
20260505162021 41 360 16.0 0.0 0.00 0.00 0.00 39 1018.5
20260505161535 41 360 15.0 0.0 0.00 0.00 0.00 41 1018.3
20260505161020 41 360 16.0 0.0 0.00 0.00 0.00 39 1018.3
20260505160521 41 360 16.0 0.0 0.00 0.00 0.00 40 1018.4
20260505160118 40 360 15.0 0.0 0.00 0.00 0.00 40 1018.4
20260505153016 38 360 15.0 0.0 0.00 0.00 0.00 43 1018.4
20260505152515 38 360 16.0 0.0 0.00 0.00 0.00 43 1018.4
20260505152014 38 360 17.0 0.0 0.00 0.00 0.00 42 1018.4
20260505151513 39 360 17.0 0.0 0.00 0.00 0.00 41 1018.4
20260505151013 39 360 16.0 0.0 0.00 0.00 0.00 42 1018.3
20260505150513 38 360 17.0 0.0 0.00 0.00 0.00 42 1018.3
20260505150111 39 360 16.0 0.0 0.00 0.00 0.00 42 1018.2
20260505140505 38 360 16.0 0.0 0.00 0.00 0.00 48 1017.8
20260505140106 38 360 15.0 0.0 0.00 0.00 0.00 51 1017.9
20260505130112 36 360 10.0 0.0 0.00 0.00 0.00 58 1017.3
20260505124558 36 360 10.0 0.0 0.00 0.00 0.00 59 1017.2
20260505124057 35 360 9.0 0.0 0.00 0.00 0.00 60 1017.2
20260505123556 35 360 8.0 0.0 0.00 0.00 0.00 61 1017.1
20260505123102 35 360 9.0 0.0 0.00 0.00 0.00 61 1017.1
20260505122555 35 360 8.0 0.0 0.00 0.00 0.00 61 1016.9
20260505122055 35 360 8.0 0.0 0.00 0.00 0.00 61 1016.9
20260505121556 35 360 9.0 0.0 0.00 0.00 0.00 61 1016.9
20260505121053 35 360 9.0 0.0 0.00 0.00 0.00 61 1016.8
20260505120553 35 360 8.0 0.0 0.00 0.00 0.00 63 1016.7
20260505120059 35 360 7.0 0.0 0.00 0.00 0.00 63 1016.7
20260505115552 35 360 7.0 0.0 0.00 0.00 0.00 63 1016.7
20260505115052 35 360 7.0 0.0 0.00 0.00 0.00 62 1016.7
20260505114552 35 360 7.0 0.0 0.00 0.00 0.00 62 1016.7
20260505114052 35 360 8.0 0.0 0.00 0.00 0.00 61 1016.6
20260505113552 35 360 8.0 0.0 0.00 0.00 0.00 61 1016.6
20260505113058 35 360 9.0 0.0 0.00 0.00 0.00 61 1016.6
20260505112550 35 360 8.0 0.0 0.00 0.00 0.00 61 1016.6
20260505112049 35 360 8.0 0.0 0.00 0.00 0.00 62 1016.5
20260505111549 35 360 8.0 0.0 0.00 0.00 0.00 63 1016.6
20260505111049 35 360 7.0 0.0 0.00 0.00 0.00 62 1016.6
20260505110548 35 360 7.0 0.0 0.00 0.00 0.00 63 1016.5
20260505102041 36 360 9.0 0.0 0.00 0.00 0.00 63 1016.3
20260505101548 36 360 8.0 0.0 0.00 0.00 0.00 63 1016.3
20260505101041 36 360 8.0 0.0 0.00 0.00 0.00 62 1016.3
20260505100544 36 360 8.0 0.0 0.00 0.00 0.00 62 1016.3
20260505100040 36 360 8.0 0.0 0.00 0.00 0.00 61 1016.2
20260505095545 36 360 8.0 0.0 0.00 0.00 0.00 61 1016.1
20260505095039 36 360 9.0 0.0 0.00 0.00 0.00 61 1016.2
20260505094539 36 360 9.0 0.0 0.00 0.00 0.00 60 1016.0
20260505094038 36 360 9.0 0.0 0.00 0.00 0.00 60 1016.0
20260505093542 36 360 8.0 0.0 0.00 0.00 0.00 60 1016.0
20260505093039 36 360 7.0 0.0 0.00 0.00 0.00 60 1015.9
20260505092539 36 360 8.0 0.0 0.00 0.00 0.00 60 1015.9
20260505092037 36 360 8.0 0.0 0.00 0.00 0.00 59 1015.9
20260505091537 36 360 7.0 0.0 0.00 0.00 0.00 59 1015.9
20260505091036 36 360 7.0 0.0 0.00 0.00 0.00 59 1015.8
20260505090536 36 360 7.0 0.0 0.00 0.00 0.00 59 1015.8
20260505090042 36 360 8.0 0.0 0.00 0.00 0.00 59 1015.9
20260505085535 36 360 8.0 0.0 0.00 0.00 0.00 59 1015.8
20260505085035 36 360 8.0 0.0 0.00 0.00 0.00 59 1015.8
20260505084546 36 360 7.0 0.0 0.00 0.00 0.00 59 1015.8
20260505084033 36 360 7.0 0.0 0.00 0.00 0.00 59 1015.8
20260505083533 36 360 8.0 0.0 0.00 0.00 0.00 59 1015.7
20260505083039 36 360 7.0 0.0 0.00 0.00 0.00 59 1015.7
20260505082533 36 360 6.0 0.0 0.00 0.00 0.00 59 1015.7
20260505082032 36 360 6.0 0.0 0.00 0.00 0.00 58 1015.7
20260505081533 36 360 6.0 0.0 0.00 0.00 0.00 58 1015.7
20260505081034 36 360 6.0 0.0 0.00 0.00 0.00 58 1015.6
20260505080531 36 360 5.0 0.0 0.00 0.00 0.00 58 1015.6
20260505080042 36 360 6.0 0.0 0.00 0.00 0.00 58 1015.8
20260505075533 36 360 6.0 0.0 0.00 0.00 0.00 58 1015.8
20260505075031 36 360 6.0 0.0 0.00 0.00 0.00 58 1015.7
20260505074531 36 360 6.0 0.0 0.00 0.00 0.00 58 1015.7
20260505074031 36 360 7.0 0.0 0.00 0.00 0.00 58 1015.6
20260505073531 36 360 7.0 0.0 0.00 0.00 0.00 58 1015.6
20260505073034 36 360 7.0 0.0 0.00 0.00 0.00 58 1015.6
20260505072531 36 360 6.0 0.0 0.00 0.00 0.00 57 1015.6
20260505072029 36 360 6.0 0.0 0.00 0.00 0.00 57 1015.5
20260505071542 37 360 7.0 0.0 0.00 0.00 0.00 57 1015.6
20260505071030 37 360 7.0 0.0 0.00 0.00 0.00 56 1015.6
20260505070528 37 360 8.0 0.0 0.00 0.00 0.00 56 1015.5
20260505070027 37 360 8.0 0.0 0.00 0.00 0.00 56 1015.5
20260505065528 37 360 8.0 0.0 0.00 0.00 0.00 56 1015.5
20260505065027 37 360 8.0 0.0 0.00 0.00 0.00 56 1015.5
20260505064533 37 360 9.0 0.0 0.00 0.00 0.00 56 1015.5
20260505064029 37 360 8.0 0.0 0.00 0.00 0.00 56 1015.4
20260505063526 37 360 8.0 0.0 0.00 0.00 0.00 56 1015.5
20260505063026 37 360 7.0 0.0 0.00 0.00 0.00 56 1015.4
20260505062525 37 360 7.0 0.0 0.00 0.00 0.00 56 1015.5
20260505062024 37 360 7.0 0.0 0.00 0.00 0.00 55 1015.4
20260505061527 37 360 7.0 0.0 0.00 0.00 0.00 55 1015.4
20260505061022 37 360 9.0 0.0 0.00 0.00 0.00 54 1015.4
20260505060522 37 360 9.0 0.0 0.00 0.00 0.00 54 1015.3
20260505060032 37 360 9.0 0.0 0.00 0.00 0.00 53 1015.3
20260505055522 37 360 9.0 0.0 0.00 0.00 0.00 53 1015.3
20260505055022 37 360 10.0 0.0 0.00 0.00 0.00 53 1015.2
20260505054522 37 360 9.0 0.0 0.00 0.00 0.00 53 1015.2
20260505054021 37 360 8.0 0.0 0.00 0.00 0.00 53 1015.2
20260505053520 38 360 9.0 0.0 0.00 0.00 0.00 53 1015.1
20260505053025 38 360 8.0 0.0 0.00 0.00 0.00 53 1015.1
20260505052520 38 360 9.0 0.0 0.00 0.00 0.00 53 1015.1
20260505052020 38 360 9.0 0.0 0.00 0.00 0.00 53 1015.0
20260505051520 38 360 8.0 0.0 0.00 0.00 0.00 53 1014.9
20260505051018 38 360 8.0 0.0 0.00 0.00 0.00 53 1014.9
20260505050518 38 360 8.0 0.0 0.00 0.00 0.00 53 1014.8
20260505041515 38 360 6.0 0.0 0.00 0.00 0.00 54 1014.6
20260505041015 38 360 6.0 0.0 0.00 0.00 0.00 54 1014.6
20260505040516 38 360 6.0 0.0 0.00 0.00 0.00 54 1014.6
20260505040016 38 360 5.0 0.0 0.00 0.00 0.00 55 1014.5
20260505035514 38 360 5.0 0.0 0.00 0.00 0.00 55 1014.5
20260505035017 38 360 5.0 0.0 0.00 0.00 0.00 55 1014.5
20260505034513 38 360 6.0 0.0 0.00 0.00 0.00 54 1014.5
20260505034014 38 360 6.0 0.0 0.00 0.00 0.00 54 1014.5
20260505033516 38 360 7.0 0.0 0.00 0.00 0.00 54 1014.5
20260505033012 38 360 7.0 0.0 0.00 0.00 0.00 54 1014.4
20260505032512 38 360 8.0 0.0 0.00 0.00 0.00 53 1014.4
20260505032010 38 360 9.0 0.0 0.00 0.00 0.00 53 1014.3
20260505031512 39 360 10.0 0.0 0.00 0.00 0.00 52 1014.3
20260505031012 39 360 11.0 0.0 0.00 0.00 0.00 52 1014.2
20260505030510 39 360 13.0 0.0 0.00 0.00 0.00 52 1014.1
20260505030009 39 360 13.0 0.0 0.00 0.00 0.00 51 1014.1
20260505025508 39 360 13.0 0.0 0.00 0.00 0.00 51 1014.0
20260505025006 39 360 12.0 0.0 0.00 0.00 0.00 52 1014.0
20260505024506 39 360 11.0 0.0 0.00 0.00 0.00 52 1013.9
20260505024010 39 360 11.0 0.0 0.00 0.00 0.00 51 1013.8
20260505023504 39 360 12.0 0.0 0.00 0.00 0.00 51 1013.7
20260505023004 39 360 14.0 0.0 0.00 0.00 0.00 50 1013.6
20260505022503 40 360 15.0 0.0 0.00 0.00 0.00 49 1013.5
20260505022006 40 360 14.0 0.0 0.00 0.00 0.00 49 1013.4
20260505021502 40 360 12.0 0.0 0.00 0.00 0.00 49 1013.2
20260505021001 40 360 12.0 0.0 0.00 0.00 0.00 49 1013.2
20260505020501 41 360 12.0 0.0 0.00 0.00 0.00 48 1013.1
20260505020105 41 360 13.0 0.0 0.00 0.00 0.00 48 1013.0
20260505015501 41 360 13.0 0.0 0.00 0.00 0.00 48 1012.9
20260505015001 41 360 13.0 0.0 0.00 0.00 0.00 47 1012.8
20260505014607 41 360 13.0 0.0 0.00 0.00 0.00 47 1012.8
20260505014103 41 360 14.0 0.0 0.00 0.00 0.00 47 1012.6
20260505013558 42 360 15.0 0.0 0.00 0.00 0.00 47 1012.5
20260505013058 42 360 14.0 0.0 0.00 0.00 0.00 46 1012.4
20260505012557 42 360 15.0 0.0 0.00 0.00 0.00 46 1012.4
20260505012056 42 360 16.0 0.0 0.00 0.00 0.00 45 1012.3
20260505011556 42 360 15.0 0.0 0.00 0.00 0.00 45 1012.2
20260505011054 42 360 15.0 0.0 0.00 0.00 0.00 46 1012.1
20260505010554 43 360 16.0 0.0 0.00 0.00 0.00 46 1012.0
20260505010055 43 360 17.0 0.0 0.00 0.00 0.00 45 1011.9
20260505005053 43 360 16.0 0.0 0.00 0.00 0.00 45 1011.8
20260505004556 43 360 17.0 0.0 0.00 0.00 0.00 45 1011.8
20260505004055 43 360 17.0 0.0 0.00 0.00 0.00 45 1011.8
20260505003551 43 360 17.0 0.0 0.00 0.00 0.00 45 1011.7
20260505003053 43 360 17.0 0.0 0.00 0.00 0.00 45 1011.7
20260505002556 43 360 16.0 0.0 0.00 0.00 0.00 45 1011.7
20260505002051 44 360 16.0 0.0 0.00 0.00 0.00 44 1011.7
20260505001550 44 360 18.0 0.0 0.00 0.00 0.00 44 1011.6
20260505001049 44 360 19.0 0.0 0.00 0.00 0.00 43 1011.5
20260505000549 45 360 19.0 0.0 0.00 0.00 0.00 43 1011.5
20260505000055 45 360 19.0 0.0 0.00 0.00 0.00 43 1011.5
20260504235051 46 360 19.0 0.0 0.00 0.00 0.00 42 1011.4
20260504234550 45 360 20.0 0.0 0.00 0.00 0.00 43 1011.4
20260504234049 46 360 20.0 0.0 0.00 0.00 0.00 43 1011.2
20260504233549 45 360 20.0 0.0 0.00 0.00 0.00 43 1011.1
20260504233049 45 360 19.0 0.0 0.00 0.00 0.00 42 1011.2
20260504232651 47 360 18.0 0.0 0.00 0.00 0.00 41 1011.1
20260504232049 47 360 18.0 0.0 0.00 0.00 0.00 41 1011.0
20260504231547 48 360 19.0 0.0 0.00 0.00 0.00 40 1011.0
20260504231046 48 360 18.0 0.0 0.00 0.00 0.00 40 1010.9
20260504230549 48 360 19.0 0.0 0.00 0.00 0.00 40 1010.7
20260504230050 47 360 18.0 0.0 0.00 0.00 0.00 41 1010.6
20260504225045 48 360 18.0 0.0 0.00 0.00 0.00 42 1010.6
20260504224548 48 360 20.0 0.0 0.00 0.00 0.00 41 1010.6
20260504224048 48 360 19.0 0.0 0.00 0.00 0.00 39 1010.5
20260504223547 49 360 17.0 0.0 0.00 0.00 0.00 40 1010.4
20260504223045 48 360 17.0 0.0 0.00 0.00 0.00 40 1010.5
20260504222547 48 360 18.0 0.0 0.00 0.00 0.00 41 1010.6
20260504222044 49 360 17.0 0.0 0.00 0.00 0.00 39 1010.4
20260504221545 49 360 16.0 0.0 0.00 0.00 0.00 41 1010.4